Zurück zum Katalog

STARLINK-32002

AktivKommunikationVLEO
NORAD 60200·PAYLOAD·🇺🇸 United States

Gestartet Jul 3, 2024 von Cape Canaveral Space Force Station

Loading…

Nächste Überflüge (nächste 24 Stunden)

TLE

AktuellSource: CelesTrak SupGP

Epoche: Sep 14, 2026, 15:27 UTC

1 60200C 24124T   26257.64423611  .00062781  00000+0  20194-2 0  2578
2 60200  53.1567 163.3883 0001148  92.0488 341.9789 15.31662118    10

Verfolge STARLINK-32002 in Echtzeit mit AllMySat

Download on the App Store